Location: Moydans
(44.3997°N, 5.5038°E)
Time: 00:40:27
(UTC+02:00)

Nauka - Pass Details

Date: 30 September 2021
Orbit: 417 x 423 km, 51.6° (Epoch: 17 October)

Event Time Altitude Azimuth Distance (km) Brightness Sun altitude
Rises 21:01:42 0° 301° (WNW) 2,364 ? -18.8°
Reaches altitude 10° 21:03:50 10° 307° (NW) 1,499 ? -19.2°
Enters shadow 21:07:06 53° 23° (NNE) 521 ? -19.7°
